SCP
0 0 0 0 0 -0 0 0 0 0 -0 0 -0 -0 0 -0 -0 -0 -0 0 -0 -0 -0 -0 -0 -0 -0 -0 -0 -0 0 0
0 0 0 0 -0 0 0 0 0 0 -0 -0 -0 -0 -0 -0 -0 -0 -0 0 -0 -0 -0 -0 -0 -0 -0 -0 -0 -0 0 -0
0 0 0 0 0 0 -0 0 0 0 0 0 -0 -0 -1 -0 -0 -0 -0 0 -0 -0 -0 -0 -0 -0 -0 -0 -0 -0 -0 -0
0 0 0 0 0 -0 -0 0 0 0 0 -0 -0 -1 -0 -0 -0 -0 -0 0 0 -0 -0 -0 -0 -0 0 -0 -0 -0 -0 -0
0 0 0 0 0 0 0 0 0 -0 0 -0 -0 -0 -0 -0 -0 0 0 0 0 0 0 0 0 0 0 -0 -0 -0 -0 -0
0 0 0 0 -0 -0 -0 0 0 -0 0 0 -0 -0 -0 -0 -0 -0 0 0 0 0 0 0 0 0 -0 -0 -0 -0 -0 -0
-0 0 0 -0 -0 0 0 0 -0 0 0 -0 -0 -0 -0 -0 -0 -0 0 0 0 0 0 0 -0 -0 -0 -0 -0 -0 -0 -0
0 0 -0 0 -0 0 0 0 0 0 -0 -0 -0 -0 -0 -0 -0 -0 -0 -0 -0 0 0 0 -0 -0 -0 -0 -0 -0 -0 -0
0 -0 -0 -0 -0 0 0 0 0 -0 -0 -0 -0 -0 -0 -0 -0 -0 -0 -0 0 -0 -0 0 -0 -0 -0 -0 -0 -0 -0 -0
-0 -0 0 0 0 0 0 0 -0 -0 -0 0 0 -0 -0 -0 -0 -0 -0 -0 0 0 -0 0 -0 -0 -0 -0 -0 -0 -0 -0
-0 -0 -0 0 0 0 0 -0 -0 -0 -0 -0 0 -0 -0 -0 -0 -0 -0 -0 -0 0 -0 0 -0 -0 -0 -0 -0 -0 -0 -0
0 0 0 0 0 0 0 -0 -0 -0 0 0 0 -0 0 -0 -0 -0 -0 -0 -0 -0 -0 -0 -0 0 0 -0 -0 -0 -0 -0
0 0 0 0 -0 0 -0 -0 -0 -0 -0 -0 -0 -0 -0 -0 -0 -0 -0 -0 -0 -0 -0 -0 -0 -0 -0 0 -0 -0 -0 -0
-0 -0 -0 0 0 0 -0 -0 -0 -0 0 -0 0 0 -0 -0 -0 -0 -0 -0 -0 -0 -0 -0 -0 -0 0 -0 -0 -0 -0 -0
-0 0 -0 0 0 -0 -0 -0 0 -0 -0 -0 -0 0 0 -0 -0 -0 -0 -0 -0 -0 -0 -0 -0 -0 0 -0 0 -0 -0 -0
0 0 0 0 -0 0 -0 0 0 -0 0 -0 -0 -0 0 0 0 0 -0 -0 -0 -0 -0 -0 -0 0 -0 0 -0 -0 -0 -0
0 0 0 0 0 0 0 0 0 0 0 -0 -0 0 0 0 -0 0 0 0 0 0 0 0 0 0 0 0 0 0 0 0
0 0 0 0 0 0 0 0 0 0 0 0 -0 0 0 0 0 0 0 0 0 0 0 0 0 0 0 0 0 0 0 0
0 0 0 0 0 0 0 -0 0 0 0 0 0 0 0 0 0 0 0 0 0 0 0 0 0 0 0 0 0 0 0 0
0 0 0 0 -0 0 0 0 -0 0 0 0 0 0 0 0 0 0 0 0 0 0 0 0 0 0 0 0 0 0 0 0
Wind_Speed_500mb
9 6 2 9 6 17 8 42 29 14 24 12 12 33 67 52 56 57 53 51 47 43 38 36 37 39 39 37 35 36 39 38
6 9 13 12 29 38 13 32 29 38 13 21 14 46 46 56 49 49 52 50 46 42 37 36 37 38 38 37 37 38 41 38
10 15 12 9 34 37 10 10 23 17 9 10 32 30 51 50 39 37 52 46 43 40 38 36 36 38 38 38 38 40 41 36
7 16 18 17 38 17 11 29 33 31 21 9 36 46 49 38 27 41 35 34 37 38 37 36 37 39 39 39 40 42 39 33
12 6 14 11 17 38 33 26 11 45 12 35 55 47 44 32 33 42 27 22 26 35 37 37 38 40 41 41 41 41 36 32
10 10 12 15 15 62 56 11 44 38 15 27 56 52 47 43 38 35 27 14 23 35 37 39 40 41 42 42 42 39 35 32
12 13 13 12 5 23 26 46 8 13 44 63 65 62 57 57 47 41 31 15 23 31 35 38 40 42 43 43 41 38 35 32
26 18 15 19 15 31 17 38 23 35 47 73 61 56 54 62 53 45 30 18 23 31 36 40 43 43 44 44 42 39 36 33
41 49 60 18 18 23 42 2 50 69 82 72 67 57 54 60 46 29 22 22 18 29 36 41 44 44 44 43 42 40 38 40
53 64 34 19 14 30 43 31 55 62 79 79 73 66 59 57 47 42 34 25 21 22 36 42 43 45 44 44 43 42 41 40
36 46 20 27 14 10 26 49 64 71 75 78 70 69 62 48 46 42 40 33 23 20 34 42 44 42 42 42 42 41 44 41
8 4 9 11 16 20 33 71 73 76 80 76 71 69 64 58 59 55 45 39 31 25 32 40 38 38 39 40 41 46 43 38
8 7 8 3 15 14 65 76 78 81 83 76 68 69 71 62 71 64 55 43 40 35 30 42 36 29 35 38 41 45 49 42
16 23 18 13 18 11 77 78 70 76 79 79 73 74 75 65 69 71 61 55 47 44 38 43 40 34 36 43 41 41 45 42
19 17 11 8 21 14 77 81 71 70 75 82 74 70 75 70 71 73 69 59 53 54 46 41 43 43 39 42 39 36 36 38
10 17 3 10 24 7 83 62 63 81 74 80 80 75 76 77 72 72 70 60 51 55 54 49 46 48 41 42 38 37 38 39
12 13 6 10 6 4 40 42 41 51 59 83 82 73 77 81 73 74 73 65 61 55 61 57 57 58 56 57 49 53 48 47
14 13 4 12 11 12 9 15 34 48 79 84 79 73 82 87 82 77 75 67 61 59 57 64 58 57 59 61 61 58 59 56
15 10 9 5 14 11 18 21 28 24 31 76 84 86 88 93 88 76 75 69 61 59 59 57 59 55 54 54 66 70 67 68
10 5 6 7 10 12 14 19 19 30 35 50 92 81 76 86 86 80 71 63 61 55 56 59 60 61 65 64 66 70 76 74
Wind_Direction_500mb
127 120 169 285 292 336 44 130 112 105 68 83 117 137 144 163 162 169 170 167 167 169 169 167 162 161 157 152 150 148 144 138
70 279 236 205 277 306 289 92 88 119 63 91 149 145 157 157 160 169 168 168 169 171 169 167 165 163 158 156 154 151 147 141
345 298 265 255 260 279 262 85 99 108 92 77 158 167 155 151 158 172 168 169 172 172 170 169 168 165 162 159 157 153 149 143
243 258 292 280 280 240 160 120 117 98 96 87 149 148 148 144 136 164 160 167 175 174 173 173 171 168 164 162 159 155 150 143
258 298 338 320 27 137 143 152 153 134 107 142 148 151 147 142 144 156 147 151 175 180 177 175 174 170 166 164 159 155 148 142
248 245 263 254 278 138 145 170 145 134 147 162 160 161 161 159 164 163 158 153 185 184 182 178 175 171 167 163 159 153 148 142
244 218 232 236 223 125 123 137 155 194 156 152 161 167 169 165 167 168 165 165 188 190 184 178 175 172 167 163 159 154 149 144
218 208 245 232 216 134 111 115 92 119 132 148 168 175 175 172 173 173 164 165 183 191 184 178 177 174 167 164 161 156 151 146
267 267 236 263 184 131 122 267 156 147 151 157 167 179 183 180 182 182 178 170 151 186 184 179 176 173 170 167 163 159 156 147
267 268 214 167 161 152 166 184 164 158 158 160 169 183 187 187 188 183 185 182 151 165 183 176 174 175 172 170 165 165 161 160
276 256 239 176 199 153 183 172 161 162 166 167 175 179 191 202 202 197 191 184 177 169 174 173 173 175 176 174 169 164 161 163
252 214 233 200 233 135 158 163 162 167 173 171 176 184 187 197 206 202 199 192 189 189 177 170 169 179 181 180 171 173 170 170
319 347 298 157 312 170 164 164 166 176 177 176 177 186 193 195 201 205 204 196 196 200 192 181 170 176 187 182 179 180 175 179
299 351 300 72 280 109 164 162 175 184 185 184 179 189 197 195 201 204 204 200 197 203 205 198 188 191 189 179 175 174 177 189
320 335 274 137 264 234 176 174 180 184 189 190 190 193 200 200 201 203 207 201 201 202 211 208 204 206 204 193 190 190 190 191
284 292 277 319 239 248 182 177 178 194 189 194 196 199 198 202 203 203 207 207 206 209 210 215 206 209 214 210 215 213 221 216
269 264 269 301 299 249 171 181 183 200 196 196 204 203 199 202 204 203 203 206 206 211 212 216 213 211 212 214 216 220 222 225
278 273 57 329 307 293 252 209 219 194 202 202 203 202 203 202 205 203 205 208 211 213 216 219 224 226 227 223 219 219 220 223
232 323 326 327 328 330 302 302 289 95 181 198 198 202 205 201 203 200 204 208 215 221 218 225 225 225 230 234 232 229 227 226
332 27 243 38 270 294 294 306 57 81 105 183 201 201 198 197 199 200 206 211 219 227 229 231 232 231 234 234 231 234 234 237
Wind_Speed_850mb
9 6 2 9 6 17 8 42 29 14 24 12 12 33 67 52 56 57 53 51 47 43 38 36 37 39 39 37 35 36 39 38
6 9 13 12 29 38 13 32 29 38 13 21 14 46 46 56 49 49 52 50 46 42 37 36 37 38 38 37 37 38 41 38
10 15 12 9 34 37 10 10 23 17 9 10 32 30 51 50 39 37 52 46 43 40 38 36 36 38 38 38 38 40 41 36
7 16 18 17 38 17 11 29 33 31 21 9 36 46 49 38 27 41 35 34 37 38 37 36 37 39 39 39 40 42 39 33
12 6 14 11 17 38 33 26 11 45 12 35 55 47 44 32 33 42 27 22 26 35 37 37 38 40 41 41 41 41 36 32
10 10 12 15 15 62 56 11 44 38 15 27 56 52 47 43 38 35 27 14 23 35 37 39 40 41 42 42 42 39 35 32
12 13 13 12 5 23 26 46 8 13 44 63 65 62 57 57 47 41 31 15 23 31 35 38 40 42 43 43 41 38 35 32
26 18 15 19 15 31 17 38 23 35 47 73 61 56 54 62 53 45 30 18 23 31 36 40 43 43 44 44 42 39 36 33
41 49 60 18 18 23 42 2 50 69 82 72 67 57 54 60 46 29 22 22 18 29 36 41 44 44 44 43 42 40 38 40
53 64 34 19 14 30 43 31 55 62 79 79 73 66 59 57 47 42 34 25 21 22 36 42 43 45 44 44 43 42 41 40
36 46 20 27 14 10 26 49 64 71 75 78 70 69 62 48 46 42 40 33 23 20 34 42 44 42 42 42 42 41 44 41
8 4 9 11 16 20 33 71 73 76 80 76 71 69 64 58 59 55 45 39 31 25 32 40 38 38 39 40 41 46 43 38
8 7 8 3 15 14 65 76 78 81 83 76 68 69 71 62 71 64 55 43 40 35 30 42 36 29 35 38 41 45 49 42
16 23 18 13 18 11 77 78 70 76 79 79 73 74 75 65 69 71 61 55 47 44 38 43 40 34 36 43 41 41 45 42
19 17 11 8 21 14 77 81 71 70 75 82 74 70 75 70 71 73 69 59 53 54 46 41 43 43 39 42 39 36 36 38
10 17 3 10 24 7 83 62 63 81 74 80 80 75 76 77 72 72 70 60 51 55 54 49 46 48 41 42 38 37 38 39
12 13 6 10 6 4 40 42 41 51 59 83 82 73 77 81 73 74 73 65 61 55 61 57 57 58 56 57 49 53 48 47
14 13 4 12 11 12 9 15 34 48 79 84 79 73 82 87 82 77 75 67 61 59 57 64 58 57 59 61 61 58 59 56
15 10 9 5 14 11 18 21 28 24 31 76 84 86 88 93 88 76 75 69 61 59 59 57 59 55 54 54 66 70 67 68
10 5 6 7 10 12 14 19 19 30 35 50 92 81 76 86 86 80 71 63 61 55 56 59 60 61 65 64 66 70 76 74
Wind_Direction_850mb
127 120 169 285 292 336 44 130 112 105 68 83 117 137 144 163 162 169 170 167 167 169 169 167 162 161 157 152 150 148 144 138
70 279 236 205 277 306 289 92 88 119 63 91 149 145 157 157 160 169 168 168 169 171 169 167 165 163 158 156 154 151 147 141
345 298 265 255 260 279 262 85 99 108 92 77 158 167 155 151 158 172 168 169 172 172 170 169 168 165 162 159 157 153 149 143
243 258 292 280 280 240 160 120 117 98 96 87 149 148 148 144 136 164 160 167 175 174 173 173 171 168 164 162 159 155 150 143
258 298 338 320 27 137 143 152 153 134 107 142 148 151 147 142 144 156 147 151 175 180 177 175 174 170 166 164 159 155 148 142
248 245 263 254 278 138 145 170 145 134 147 162 160 161 161 159 164 163 158 153 185 184 182 178 175 171 167 163 159 153 148 142
244 218 232 236 223 125 123 137 155 194 156 152 161 167 169 165 167 168 165 165 188 190 184 178 175 172 167 163 159 154 149 144
218 208 245 232 216 134 111 115 92 119 132 148 168 175 175 172 173 173 164 165 183 191 184 178 177 174 167 164 161 156 151 146
267 267 236 263 184 131 122 267 156 147 151 157 167 179 183 180 182 182 178 170 151 186 184 179 176 173 170 167 163 159 156 147
267 268 214 167 161 152 166 184 164 158 158 160 169 183 187 187 188 183 185 182 151 165 183 176 174 175 172 170 165 165 161 160
276 256 239 176 199 153 183 172 161 162 166 167 175 179 191 202 202 197 191 184 177 169 174 173 173 175 176 174 169 164 161 163
252 214 233 200 233 135 158 163 162 167 173 171 176 184 187 197 206 202 199 192 189 189 177 170 169 179 181 180 171 173 170 170
319 347 298 157 312 170 164 164 166 176 177 176 177 186 193 195 201 205 204 196 196 200 192 181 170 176 187 182 179 180 175 179
299 351 300 72 280 109 164 162 175 184 185 184 179 189 197 195 201 204 204 200 197 203 205 198 188 191 189 179 175 174 177 189
320 335 274 137 264 234 176 174 180 184 189 190 190 193 200 200 201 203 207 201 201 202 211 208 204 206 204 193 190 190 190 191
284 292 277 319 239 248 182 177 178 194 189 194 196 199 198 202 203 203 207 207 206 209 210 215 206 209 214 210 215 213 221 216
269 264 269 301 299 249 171 181 183 200 196 196 204 203 199 202 204 203 203 206 206 211 212 216 213 211 212 214 216 220 222 225
278 273 57 329 307 293 252 209 219 194 202 202 203 202 203 202 205 203 205 208 211 213 216 219 224 226 227 223 219 219 220 223
232 323 326 327 328 330 302 302 289 95 181 198 198 202 205 201 203 200 204 208 215 221 218 225 225 225 230 234 232 229 227 226
332 27 243 38 270 294 294 306 57 81 105 183 201 201 198 197 199 200 206 211 219 227 229 231 232 231 234 234 231 234 234 237